Temperature
19 17 17 18 18 19 19 19 20 20 22 21 20 20 20 21 21 21 21 21 22 22 22 22 22 21 21 21 21 20 20 19 19 18 18 17 17 16 16 16 16 15 15 15
17 17 18 19 19 20 19 19 19 21 22 21 20 20 20 20 21 21 21 21 22 22 22 22 22 22 21 21 21 20 20 19 19 18 18 17 17 16 16 16 16 15 15 15
18 19 20 20 20 19 19 19 20 20 21 21 20 19 19 20 20 21 21 21 22 22 22 22 21 21 21 21 21 20 20 19 19 18 18 17 17 16 16 16 16 15 15 15
18 20 20 20 20 20 20 21 21 21 19 19 20 18 19 19 19 19 20 21 21 21 21 21 21 21 21 21 20 20 20 19 19 18 18 17 17 16 16 16 16 15 15 15
19 20 20 20 20 20 20 21 21 20 19 18 19 18 19 19 19 19 19 20 21 21 21 21 21 21 21 20 20 20 19 19 19 18 18 17 17 16 16 16 16 16 15 15
19 20 20 20 21 21 20 20 19 18 18 18 19 18 19 18 19 19 19 20 20 21 21 21 21 21 20 20 20 20 19 19 18 18 18 17 17 16 16 16 16 16 15 15
20 20 21 21 20 20 20 18 18 18 18 18 19 19 18 19 19 19 19 19 20 21 21 21 21 20 20 20 20 19 19 19 18 18 18 17 17 16 16 16 16 16 16 15
19 19 20 21 20 20 19 19 18 18 18 18 19 18 19 20 20 20 20 20 20 20 20 20 20 20 20 20 19 19 19 18 18 18 17 17 17 16 16 16 16 16 15 15
18 19 21 21 21 21 19 18 18 18 18 18 18 18 19 19 18 19 19 19 19 20 20 20 20 20 19 19 19 19 18 18 18 18 17 17 17 16 16 16 16 16 15 15
19 19 20 21 22 21 20 19 17 18 18 18 18 18 17 18 18 18 18 18 19 19 19 19 19 19 19 19 18 18 18 18 17 17 17 17 16 16 16 16 16 15 15 15
19 19 20 21 21 21 20 20 18 17 17 17 17 18 19 19 18 18 18 19 19 19 19 19 19 19 18 18 18 18 18 17 17 17 17 16 16 16 16 16 16 15 15 15
19 17 18 20 22 22 21 21 19 18 18 17 17 18 20 19 19 19 18 19 19 19 19 19 18 18 18 18 18 18 17 17 17 17 16 16 16 16 16 16 15 15 15 15
20 18 18 19 20 22 22 21 20 18 17 17 17 19 19 18 18 19 18 19 19 19 18 18 18 18 18 18 18 17 17 17 16 16 16 16 16 16 15 15 15 15 15 15
20 18 18 19 20 20 22 22 21 19 18 18 18 18 18 18 17 17 18 19 18 18 18 18 18 18 18 17 17 17 17 16 16 16 16 16 15 15 15 15 14 14 14 14
20 19 20 20 21 22 22 22 22 21 19 19 19 18 18 18 18 18 18 18 18 18 18 18 18 17 17 17 17 17 16 16 16 16 15 15 15 14 14 14 14 14 14 14
19 20 21 21 22 22 22 22 22 21 21 20 19 19 19 19 18 18 18 18 18 18 18 17 17 17 17 17 17 16 16 16 16 15 15 15 14 14 14 14 13 13 13 13
18 19 19 19 20 21 21 21 21 21 21 20 19 19 18 17 17 18 18 18 18 18 18 17 17 17 17 17 16 16 16 15 15 15 15 14 14 14 14 13 13 13 13 13
18 18 17 18 20 20 20 21 22 21 21 20 20 19 18 19 19 19 19 18 18 18 17 17 17 17 17 16 16 16 15 15 15 14 14 14 14 13 13 13 13 13 12 12
18 18 17 17 18 19 21 22 21 21 21 20 19 19 19 19 18 17 18 19 19 18 18 17 17 17 16 16 16 15 15 15 14 14 14 13 13 13 13 12 12 12 12 12
17 17 17 16 19 19 20 21 22 21 20 20 19 18 18 18 16 16 18 18 18 18 17 17 16 16 16 15 15 15 14 14 14 13 13 13 12 12 12 12 12 11 11 11
18 17 16 16 17 18 19 21 22 20 20 21 20 19 18 18 19 19 18 18 18 17 17 17 16 16 15 15 15 14 14 13 13 13 12 12 12 12 11 11 11 11 11 11
17 16 15 15 17 18 20 20 20 20 21 21 21 20 20 20 20 19 18 18 17 17 16 16 16 15 15 14 14 14 13 13 13 12 12 12 11 11 11 11 11 10 10 10
16 17 16 16 17 19 20 21 22 22 22 22 21 21 20 20 19 18 18 18 17 17 16 16 15 15 14 14 14 13 13 12 12 12 12 11 11 11 10 10 10 10 10 9
16 16 15 16 17 18 20 21 22 22 22 22 22 21 20 20 19 18 18 17 17 16 16 15 15 14 14 14 13 13 12 12 12 11 11 11 11 10 10 10 10 9 9 9
17 16 15 16 17 18 19 21 21 22 22 21 21 21 20 19 18 18 17 17 16 16 15 15 14 14 14 13 13 12 12 12 11 11 11 11 10 10 10 10 9 9 9 8
15 16 16 16 17 16 19 21 21 21 21 20 20 19 19 19 18 18 17 16 16 15 15 14 14 14 13 13 12 12 12 11 11 11 10 10 10 10 9 9 9 9 8 8
Wind_Speed
2 3 3 5 5 5 4 3 2 3 4 5 6 5 3 5 7 7 6 6 6 4 3 4 6 7 7 7 7 7 7 6 5 4 3 3 2 1 1 1 2 4 4 5
3 3 6 5 5 4 3 3 3 2 4 5 7 5 2 3 5 7 8 7 6 4 4 4 6 6 7 7 6 7 7 6 5 3 3 2 2 1 0 1 1 2 2 3
5 4 5 6 6 5 3 6 6 6 4 5 8 5 3 2 3 4 4 5 6 7 7 6 6 5 5 6 7 7 7 6 5 5 4 4 4 3 3 2 2 2 0 0
3 4 4 7 6 7 4 6 8 7 6 2 4 3 3 0 2 2 2 4 5 5 5 5 5 5 5 5 5 7 6 6 5 5 5 4 2 1 2 2 2 2 1 1
3 3 5 6 6 6 4 4 7 6 5 4 3 5 3 1 2 2 3 4 4 5 6 6 5 5 5 5 6 6 7 6 5 5 5 4 2 1 1 1 1 2 2 2
3 2 4 4 3 5 4 6 6 5 4 2 2 4 4 5 7 6 5 5 5 5 6 5 4 5 6 6 6 6 7 5 4 5 4 4 2 1 1 2 1 2 2 3
1 1 1 3 4 3 5 6 3 3 3 2 2 3 5 6 7 9 9 7 6 6 6 6 6 5 6 6 6 6 6 5 4 4 3 2 2 1 1 1 1 1 1 2
3 2 3 4 5 5 4 6 6 5 4 1 1 3 4 2 5 7 8 8 7 6 6 6 5 5 5 6 6 6 6 4 3 3 2 1 1 1 0 0 0 0 1 3
5 3 3 2 4 6 5 3 5 6 4 2 1 1 3 3 7 8 8 8 7 7 6 6 5 5 5 5 5 5 5 4 3 2 2 2 2 2 1 1 1 1 1 2
6 3 3 3 3 1 6 7 5 5 5 3 2 3 6 9 10 9 9 9 7 6 6 6 5 4 4 4 4 5 5 4 3 3 2 3 2 1 1 2 3 3 3 2
4 4 1 2 5 6 4 4 5 4 5 6 4 6 7 14 14 13 11 10 9 8 7 6 5 4 5 5 5 5 4 4 3 3 3 3 2 2 2 2 3 3 3 3
5 5 2 6 6 6 6 7 7 6 4 4 5 6 3 13 12 12 11 9 8 8 7 6 6 5 5 5 5 4 4 4 3 3 4 3 3 3 3 3 3 4 4 3
6 6 3 2 4 2 4 5 6 6 5 5 5 5 1 8 10 11 11 10 9 8 7 6 6 5 5 4 4 4 4 3 3 4 4 4 3 3 3 3 4 4 4 4
6 5 6 8 7 6 5 6 7 6 5 5 7 6 5 10 12 11 11 10 9 9 8 7 6 5 4 4 4 4 4 3 4 5 5 4 3 3 3 3 4 4 4 4
5 4 5 6 6 6 6 7 8 7 8 8 9 12 14 16 16 15 13 11 11 9 9 8 7 5 4 4 4 4 4 4 5 6 5 3 3 3 4 4 4 4 4 5
4 4 1 2 3 3 4 7 8 7 7 7 7 7 7 10 10 11 13 14 12 11 10 8 8 7 6 5 5 4 4 3 5 5 4 3 3 4 4 4 4 5 5 5
4 5 3 2 4 2 4 9 10 7 8 10 10 10 10 11 16 18 16 15 13 12 10 10 8 7 6 6 5 5 4 4 5 4 3 3 3 4 4 4 5 5 5 4
7 6 4 1 1 4 9 7 8 9 8 9 9 11 18 17 16 13 13 14 13 12 11 9 8 7 6 5 5 5 5 5 5 4 3 2 3 3 4 4 4 4 3 3
7 8 5 3 3 6 7 4 7 8 6 7 10 12 12 10 8 3 7 11 13 12 10 9 8 7 7 6 6 7 6 5 4 3 2 2 2 2 3 4 4 3 3 4
5 6 6 5 4 6 9 6 4 7 4 5 11 14 14 13 9 9 10 11 11 10 10 9 8 8 8 6 7 8 6 4 3 1 0 1 1 2 2 3 3 2 2 3
4 3 5 6 5 8 8 4 6 7 9 6 12 16 18 13 10 10 13 11 11 10 10 10 10 8 7 7 7 7 5 3 2 1 1 2 2 2 2 2 2 3 3 4
9 7 6 6 5 9 6 6 8 9 4 8 11 14 13 9 10 13 15 14 13 11 10 10 10 8 6 7 8 6 4 3 2 2 1 2 3 3 2 2 3 3 3 4
7 9 8 9 9 6 4 7 5 6 7 7 10 10 11 12 11 13 13 14 13 12 11 9 10 8 6 6 7 6 4 3 3 2 0 2 2 3 2 2 3 3 3 3
3 3 5 3 5 4 2 2 3 5 7 7 9 11 13 13 13 13 13 12 11 10 9 8 9 8 6 5 6 6 5 4 3 2 1 1 2 3 3 2 2 2 3 4
5 5 4 3 3 1 1 2 4 5 7 9 9 9 13 15 13 13 13 12 11 9 8 9 9 9 8 6 6 5 5 5 4 2 2 2 2 2 3 3 3 4 4 5
4 6 7 7 8 7 7 6 6 8 8 10 10 9 10 13 14 12 11 10 10 10 8 8 8 8 7 6 6 5 5 5 5 3 3 3 3 3 3 4 5 7 7 10
Wind_Direction
103 90 185 202 188 173 152 153 186 199 168 123 124 123 144 145 131 139 155 162 162 166 168 141 144 145 143 141 140 139 134 134 123 107 102 96 86 71 58 56 89 79 66 57
77 218 216 199 183 166 153 172 176 157 145 129 116 99 105 115 143 156 159 160 160 147 122 126 130 135 145 148 142 138 139 138 135 129 129 129 123 116 136 347 34 63 76 50
187 219 194 180 168 170 191 184 175 155 114 95 101 49 8 34 66 97 128 143 150 148 143 140 129 136 141 144 153 151 147 138 129 115 94 70 52 36 22 3 330 308 246 24
222 243 170 168 178 166 188 188 162 140 114 114 115 137 267 122 60 79 96 121 141 148 141 139 132 132 143 153 146 140 137 129 121 113 108 111 110 114 253 257 271 293 287 279
218 180 164 174 183 160 186 148 129 120 114 78 63 113 264 169 132 154 146 138 138 149 141 135 133 131 123 121 126 129 127 123 122 117 120 116 113 196 282 305 316 313 314 300
225 201 170 180 161 151 131 87 76 59 79 95 221 131 218 213 184 170 160 144 134 128 124 123 115 102 93 98 110 116 119 116 119 118 120 125 127 122 25 360 344 319 315 313
16 326 193 147 115 127 107 104 91 55 51 223 210 141 225 216 177 163 153 143 131 125 121 114 110 107 105 107 113 118 118 112 116 116 119 135 145 140 162 277 290 310 309 299
137 250 232 170 159 158 159 138 148 156 169 221 32 193 251 201 153 142 136 135 124 118 120 119 121 121 119 118 119 120 121 119 121 120 117 105 103 101 99 262 224 253 252 261
162 227 267 182 157 138 129 150 156 125 118 103 275 315 352 99 123 129 130 126 128 129 126 120 116 116 120 120 126 131 127 118 121 130 111 76 72 80 54 13 14 338 304 302
149 174 242 193 105 67 150 149 110 122 142 151 207 215 203 186 170 157 150 148 143 132 123 118 115 117 120 121 118 116 119 119 111 110 105 87 73 61 44 34 10 350 330 325
135 138 251 153 185 184 157 141 130 123 146 146 182 247 212 186 177 168 167 162 154 143 136 129 122 118 112 103 101 101 102 98 93 95 88 75 62 52 50 33 355 339 337 339
154 131 192 237 239 186 166 169 152 147 175 160 163 253 250 177 172 163 162 161 156 147 140 131 121 110 101 99 96 96 95 94 96 95 90 84 67 54 45 17 348 346 343 337
148 127 114 351 326 259 193 181 160 136 128 150 160 248 12 145 151 157 155 156 153 145 135 121 113 113 114 113 105 99 93 94 91 87 82 70 54 43 27 3 350 353 354 354
131 131 164 186 203 198 204 197 170 136 149 174 196 191 177 164 161 162 159 157 152 149 145 136 132 132 127 119 113 104 90 87 89 84 76 63 41 29 10 359 356 352 356 0
125 163 206 224 226 199 200 201 192 176 177 176 200 187 194 184 174 168 162 154 150 151 152 152 151 147 133 119 109 102 94 85 88 86 77 62 38 31 21 10 357 353 358 359
130 163 168 287 252 213 215 216 200 194 179 176 165 202 197 168 151 156 161 159 159 162 161 157 153 148 145 139 129 114 104 100 94 88 76 52 40 31 16 1 358 359 353 350
143 137 120 264 302 16 257 221 201 199 188 168 185 203 159 157 171 176 173 169 168 166 161 159 157 155 154 152 141 133 130 111 98 93 77 55 45 31 4 0 6 355 343 348
141 132 134 182 41 225 243 245 197 190 207 193 180 172 171 177 180 178 171 168 167 165 160 159 154 147 144 140 132 123 111 106 99 87 66 44 40 20 2 5 357 342 338 341
149 139 131 140 203 270 285 253 175 167 221 197 174 170 165 137 112 155 181 167 166 164 158 155 152 141 133 129 125 110 101 100 95 86 64 33 35 18 4 354 339 336 345 343
97 113 130 144 178 233 248 258 184 123 221 219 167 159 150 134 160 205 185 160 152 148 146 143 137 126 126 131 122 110 109 105 109 130 107 351 6 7 344 329 325 329 336 329
125 114 150 170 207 253 252 247 119 150 221 200 169 161 162 173 187 169 155 152 149 144 144 140 134 134 142 140 123 118 121 144 185 170 78 14 350 332 317 325 324 327 336 338
176 171 181 160 194 246 244 150 176 206 186 160 168 169 168 156 133 141 151 151 149 144 143 141 138 141 147 143 132 132 157 191 174 123 62 356 338 338 360 351 337 338 341 335
191 189 183 186 210 241 223 192 194 158 151 159 164 166 151 142 146 150 153 153 153 150 151 148 145 148 156 157 147 153 189 184 153 121 31 327 335 337 338 337 331 333 334 326
252 152 138 196 251 249 206 153 137 147 150 151 149 149 150 151 153 152 154 155 154 153 154 151 149 156 171 178 171 177 186 172 152 163 249 288 311 315 320 316 306 307 308 309
224 155 148 202 240 107 310 186 154 127 122 125 131 144 153 150 153 156 159 161 162 159 157 156 162 170 181 184 188 193 185 166 166 194 234 259 267 277 293 293 276 275 265 263
216 174 170 209 208 182 210 208 161 140 143 145 140 139 149 154 156 156 161 164 163 163 161 162 167 174 184 186 196 203 193 177 176 203 232 241 252 266 272 285 301 291 282 292
Height
1508 1513 1516 1514 1513 1514 1517 1521 1522 1519 1514 1517 1522 1523 1522 1521 1521 1523 1525 1526 1528 1529 1532 1533 1535 1536 1538 1539 1540 1541 1542 1543 1543 1543 1543 1542 1542 1541 1541 1540 1538 1537 1535 1533
1512 1515 1510 1509 1511 1513 1517 1522 1523 1518 1515 1519 1524 1526 1524 1523 1522 1523 1525 1526 1528 1530 1531 1533 1534 1536 1537 1539 1540 1541 1542 1543 1543 1543 1543 1543 1542 1542 1541 1540 1539 1538 1536 1535
1513 1510 1506 1509 1512 1515 1517 1519 1520 1520 1518 1520 1525 1534 1531 1527 1525 1525 1526 1526 1528 1529 1531 1533 1534 1536 1537 1538 1540 1541 1542 1543 1543 1543 1543 1543 1543 1542 1542 1541 1540 1539 1537 1536
1509 1505 1506 1509 1512 1512 1519 1511 1513 1518 1526 1535 1531 1549 1537 1531 1529 1527 1527 1527 1528 1530 1531 1533 1534 1535 1537 1539 1540 1541 1542 1543 1544 1544 1544 1543 1543 1542 1542 1541 1540 1539 1538 1537
1507 1504 1506 1509 1508 1509 1512 1508 1513 1519 1527 1536 1536 1546 1543 1532 1533 1531 1528 1528 1528 1530 1531 1533 1534 1535 1537 1539 1540 1541 1543 1543 1544 1544 1544 1544 1543 1542 1542 1541 1540 1539 1538 1537
1504 1502 1503 1504 1504 1506 1508 1513 1519 1525 1532 1547 1540 1545 1545 1536 1531 1529 1528 1528 1529 1530 1531 1533 1534 1536 1538 1539 1540 1541 1542 1543 1544 1544 1544 1543 1543 1542 1541 1541 1540 1539 1538 1537
1507 1503 1502 1502 1508 1509 1513 1525 1540 1546 1551 1550 1537 1541 1540 1526 1524 1525 1526 1528 1529 1530 1531 1533 1534 1536 1538 1539 1540 1541 1542 1543 1543 1544 1543 1543 1543 1542 1541 1540 1540 1539 1538 1537
1515 1516 1503 1501 1505 1511 1515 1521 1539 1551 1554 1550 1539 1543 1533 1522 1523 1524 1525 1527 1529 1530 1531 1533 1534 1536 1537 1539 1540 1541 1542 1542 1543 1543 1543 1543 1542 1542 1541 1540 1539 1539 1538 1537
1515 1515 1501 1499 1500 1504 1515 1521 1521 1534 1542 1550 1547 1539 1530 1524 1525 1525 1526 1528 1529 1530 1532 1533 1535 1536 1537 1539 1540 1541 1541 1542 1542 1543 1543 1542 1542 1541 1541 1540 1539 1538 1537 1536
1505 1513 1503 1500 1500 1503 1507 1513 1525 1535 1548 1555 1549 1544 1539 1530 1527 1526 1526 1527 1529 1530 1532 1534 1535 1536 1538 1539 1540 1541 1541 1542 1542 1542 1542 1542 1541 1541 1540 1540 1539 1538 1537 1536
1500 1511 1509 1504 1505 1508 1509 1514 1520 1531 1534 1549 1556 1544 1517 1519 1519 1522 1524 1526 1528 1530 1532 1533 1535 1536 1538 1539 1540 1540 1541 1541 1541 1542 1542 1541 1541 1540 1540 1539 1538 1537 1536 1535
1498 1509 1515 1507 1497 1495 1500 1506 1515 1529 1535 1537 1543 1537 1509 1511 1515 1518 1522 1526 1528 1530 1532 1533 1535 1536 1537 1538 1539 1540 1540 1541 1541 1541 1541 1541 1540 1539 1538 1537 1536 1535 1534 1533
1495 1507 1520 1518 1511 1501 1499 1500 1504 1514 1525 1535 1541 1532 1510 1511 1515 1518 1521 1524 1527 1529 1531 1533 1535 1536 1537 1538 1539 1539 1540 1540 1540 1540 1540 1540 1539 1538 1537 1536 1535 1534 1533 1532
1488 1501 1511 1517 1510 1502 1500 1498 1499 1510 1524 1528 1526 1522 1515 1514 1515 1518 1520 1523 1526 1528 1530 1532 1534 1535 1536 1537 1538 1539 1539 1539 1539 1539 1539 1538 1538 1537 1536 1535 1534 1533 1531 1530
1487 1498 1497 1496 1492 1493 1493 1494 1495 1501 1508 1516 1514 1513 1509 1508 1510 1513 1517 1521 1524 1527 1529 1531 1533 1534 1536 1537 1537 1538 1538 1539 1539 1538 1538 1537 1537 1536 1535 1533 1532 1531 1530 1529
1487 1493 1494 1494 1489 1489 1492 1491 1492 1494 1497 1502 1505 1508 1501 1505 1509 1513 1516 1519 1522 1524 1527 1529 1531 1533 1534 1535 1536 1537 1537 1538 1538 1538 1537 1537 1536 1534 1533 1532 1531 1530 1528 1527
1488 1493 1500 1504 1495 1493 1499 1489 1488 1490 1489 1494 1502 1500 1499 1504 1506 1508 1511 1515 1518 1521 1524 1527 1529 1531 1533 1534 1535 1536 1536 1537 1537 1536 1536 1535 1534 1533 1532 1531 1529 1528 1526 1525
1487 1494 1503 1506 1502 1511 1493 1476 1477 1481 1482 1482 1485 1488 1491 1494 1498 1503 1507 1510 1514 1518 1522 1525 1527 1529 1531 1533 1534 1535 1535 1535 1535 1535 1534 1534 1533 1531 1530 1529 1528 1526 1524 1523
1478 1489 1501 1509 1510 1503 1486 1475 1475 1481 1484 1478 1481 1485 1489 1494 1501 1506 1507 1509 1511 1515 1519 1523 1526 1528 1530 1531 1532 1533 1533 1534 1534 1533 1533 1532 1531 1529 1528 1527 1525 1524 1522 1520
1479 1483 1497 1507 1507 1508 1487 1470 1468 1475 1486 1476 1477 1481 1487 1493 1503 1502 1502 1506 1510 1514 1518 1521 1524 1526 1528 1529 1531 1531 1531 1532 1531 1531 1531 1530 1529 1527 1526 1525 1523 1522 1520 1518
1486 1491 1498 1503 1504 1495 1475 1469 1470 1488 1484 1473 1474 1477 1481 1485 1487 1491 1498 1504 1508 1512 1516 1519 1522 1524 1526 1528 1529 1529 1529 1530 1530 1529 1528 1528 1527 1525 1524 1522 1521 1519 1517 1515
1484 1491 1496 1500 1503 1494 1467 1468 1472 1471 1467 1469 1472 1474 1477 1481 1486 1490 1495 1500 1505 1509 1513 1516 1519 1522 1524 1525 1527 1527 1527 1527 1527 1527 1526 1525 1524 1523 1521 1520 1518 1516 1514 1512
1476 1474 1478 1480 1479 1467 1463 1463 1463 1464 1466 1468 1470 1474 1477 1480 1484 1489 1493 1498 1502 1507 1510 1514 1517 1519 1521 1523 1524 1524 1525 1525 1524 1524 1523 1523 1522 1520 1519 1517 1515 1513 1511 1509
1468 1466 1470 1473 1468 1463 1462 1462 1463 1464 1465 1467 1469 1472 1476 1479 1483 1487 1492 1496 1500 1504 1508 1511 1514 1516 1518 1520 1521 1521 1522 1522 1522 1521 1520 1520 1519 1517 1516 1514 1512 1510 1508 1505
1463 1463 1467 1469 1465 1463 1462 1462 1463 1464 1465 1467 1470 1472 1475 1478 1482 1486 1490 1494 1498 1502 1505 1508 1510 1512 1514 1516 1517 1518 1519 1519 1518 1518 1517 1516 1515 1514 1512 1511 1509 1507 1505 1503
1459 1461 1464 1465 1459 1460 1460 1460 1462 1463 1464 1466 1469 1472 1475 1477 1480 1484 1488 1492 1495 1499 1502 1505 1507 1509 1511 1513 1514 1515 1515 1515 1515 1514 1513 1513 1511 1510 1508 1507 1505 1503 1501 1499